Regional Weather Roundup
Issued by NWS

Home | Current Version | Previous Version | Text Only | Print | Product List | Glossary Off
Versions: 1 2 3 4 5 6 7 8 9 10 11 12 13 14 15 16 17 18 19 20 21 22 23 24 25 26 27 28 29 30 31 32 33 34 35 36 37 38 39 40 41 42 43 44 45 46 47 48 49 50

000
ASUS43 KOAX 180210
RWRNE

WEATHER ROUNDUP FOR NEBRASKA
NATIONAL WEATHER SERVICE OMAHA NE
800 PM CST WED JAN 17 2018

NOTES: SATELLITE DATA IS BEING USED TO AUGMENT CLOUD COVER ABOVE
       12000 FEET.
       "FAIR" INDICATES FEW OR NO CLOUDS BELOW 12,000 FEET WITH NO
       SIGNIFICANT WEATHER AND/OR OBSTRUCTIONS TO VISIBILITY.


NEZ001>004-019>022-054>056-180300-
NEBRASKA PANHANDLE

CITY           SKY/WX    TMP DP  RH WIND       PRES   REMARKS
SCOTTSBLUFF    CLEAR     23  16  74 NE7       30.22F WCI  15
ALLIANCE       CLEAR     20  17  88 SW5       30.22F WCI  13
CHADRON        CLEAR     28  21  75 W8        30.20F WCI  20
GORDON         FAIR      25  19  78 CALM      30.20F
KIMBALL        CLEAR     27  23  85 W6        30.23F WCI  20
SIDNEY         CLEAR     21  16  81 W5        30.23F WCI  15
$$

NEZ057>060-069>072-079>082-180300-
SOUTHWEST NEBRASKA

CITY           SKY/WX    TMP DP  RH WIND       PRES   REMARKS
NORTH PLATTE   CLEAR     25  17  72 W3        30.26R
IMPERIAL       CLEAR     27  18  69 CALM      30.25F
LEXINGTON      CLEAR     27  18  68 S6        30.27S WCI  20
MCCOOK         CLEAR     29  19  66 S5        30.27F WCI  24
OGALLALA       CLEAR     29  22  76 SW5       30.23F WCI  24
$$

NEZ005>010-023>029-035>040-094-180300-
NORTH CENTRAL NEBRASKA

CITY           SKY/WX    TMP DP  RH WIND       PRES   REMARKS
VALENTINE      CLEAR     29  23  78 W7        30.20F WCI  22
AINSWORTH      CLEAR     28  23  82 W5        30.19F WCI  23
BROKEN BOW     CLEAR     23  14  68 SW3       30.23F
O`NEILL        CLEAR     24  19  81 SW8       30.19F WCI  15
ORD            CLEAR     26  18  71 SW13      30.23F WCI  15
THEDFORD       CLEAR     30  22  73 W6        30.22F WCI  24
$$

NEZ041-046>049-061>064-073>077-083>087-180300-
SOUTH CENTRAL NEBRASKA

CITY           SKY/WX    TMP DP  RH WIND       PRES   REMARKS
GRAND ISLAND   CLOUDY    25  15  66 SW13      30.29F WCI  14
AURORA         CLOUDY    19  12  73 SW8       30.30F WCI   9
HASTINGS       CLOUDY    27  13  55 SW9       30.30F WCI  18
HEBRON         CLOUDY    23  15  70 S9        30.35F WCI  13
HOLDREGE       CLOUDY    23  15  70 S5        30.29F WCI  17
KEARNEY        CLOUDY    24  14  65 SW9       30.30S WCI  14
YORK           CLOUDY    19  14  79 S10       30.31F WCI   8
$$

NEZ011>018-030>034-042>045-180300-
NORTHEAST NEBRASKA

CITY           SKY/WX    TMP DP  RH WIND       PRES   REMARKS
NORFOLK        CLOUDY    25  16  68 SW13      30.23F WCI  14
ALBION         CLOUDY    23  16  74 SW3       30.27F
BLAIR          CLOUDY    22  14  72 S16       30.30F WCI   8
COLUMBUS       CLOUDY    24  15  68 S9        30.30F WCI  14
FREMONT        CLOUDY    23  14  67 S9        30.32F WCI  13
TEKAMAH        CLOUDY    23  13  65 S12       30.31F WCI  12
WAYNE          CLOUDY    26  16  67 SW9       30.24F WCI  16
$$

NEZ050>053-065>068-078-088>093-180300-
SOUTHEAST NEBRASKA

CITY           SKY/WX    TMP DP  RH WIND       PRES   REMARKS
LINCOLN        CLOUDY    19  11  70 S6        30.37S WCI  11
OMAHA EPPLEY   CLOUDY    22  11  62 S12       30.35F WCI  10
BEATRICE       CLOUDY    22  13  71 S10       30.37F WCI  11
FALLS CITY     CLOUDY    21  10  62 S9        30.41F WCI  11
NEBRASKA CITY  CLOUDY    20  12  69 SW12      30.37F WCI   9
PLATTSMOUTH    CLOUDY    21  11  67 S13       30.36S WCI   8
$$

NEZ044-045-051>053-067-180300-
OMAHA AREA

CITY           SKY/WX    TMP DP  RH WIND       PRES   REMARKS
OMAHA EPPLEY   CLOUDY    22  11  62 S12       30.35F WCI  10
BLAIR          CLOUDY    22  14  72 S16       30.30F WCI   8
FREMONT        CLOUDY    23  14  67 S9        30.32F WCI  13
MILLARD        CLOUDY    23  12  62 S3        30.35F
OFFUTT AFB     CLOUDY    19   9  63 S6        30.36F WCI  11
PLATTSMOUTH    CLOUDY    21  11  67 S13       30.36S WCI   8
WAHOO          FAIR      21  13  71 S7        30.33F WCI  13
$$



USA.gov is the U.S. government's official web portal to all federal, state and local government web resources and services.